Tanana, AK

7:26 AM AKDT on June 22, 2017 (GMT -0800)
Calhoun Memorial

Weather History for PATA - September, 2013

Change the Weather History Date:

Thursday, September 12, 2013

  Actual Average Record
Temperature  
Mean Temperature 48 °F -  
Max Temperature 54 °F 54 °F 68 °F (1979)
Min Temperature 42 °F 36 °F 19 °F (2004)
Degree Days  
Heating Degree Days 18    
Moisture  
Dew Point 43 °F    
Average Humidity 86    
Maximum Humidity 100    
Minimum Humidity 66    
Precipitation  
Precipitation 0.00 in - - ()
Sea Level Pressure  
Sea Level Pressure 29.89 in    
Wind  
Wind Speed 4 mph (SSE)    
Max Wind Speed 8 mph    
Max Gust Speed -    
Visibility 10 miles    
Events      
Averages and records for this station are not official NWS values.
T = Trace of Precipitation, MM = Missing Value Source: NWS Daily Summary

Daily Weather History Graph

Daily Weather History Graph

Search for Another Location

Airport or City:

Trip Planner

Search our weather history database for the weather conditions in past years. The results will help you decide how hot, cold, wet, or windy it might be!

Date:

Astronomy

Sep. 12, 2013 Rise Set
Actual Time 7:22 AM AKDT 8:44 PM AKDT
Civil Twilight 6:30 AM AKDT 9:36 PM AKDT
Nautical Twilight 5:23 AM AKDT 10:42 PM AKDT
Astronomical Twilight 3:53 AM AKDT 12:09 AM AKDT
Moon 5:42 PM AKDT (9/12) 11:10 PM AKDT (9/12)
Length of Visible Light 15h 05m
Length of Day
13h 22m
First Quarter, 51% of the Moon is Illuminated
Sep 12
First Quarter
Sep 19
Full
Sep 26
Last Quarter
Oct 4
New
Oct 11
First Quarter

Hourly Weather History & Observations

Time (AKDT) Temp. Windchill Dew Point Humidity Pressure Visibility Wind Dir Wind Speed Gust Speed Precip Events Conditions
12:52 AM 46.0 °F 43.9 °F 43.0 °F 89% 29.84 in 10.0 mi Variable 4.6 mph - N/A   Mostly Cloudy
1:26 AM 46.4 °F 43.5 °F 42.8 °F 87% 29.85 in 10.0 mi SW 5.8 mph - N/A   Overcast
1:52 AM 46.0 °F 43.9 °F 43.0 °F 89% 29.87 in 10.0 mi SW 4.6 mph - N/A   Overcast
2:52 AM 45.0 °F 41.8 °F 42.1 °F 90% 29.88 in 10.0 mi SW 5.8 mph - N/A   Overcast
3:05 AM 44.6 °F 43.1 °F 42.8 °F 93% 29.87 in 10.0 mi Variable 3.5 mph - N/A   Overcast
3:52 AM 45.0 °F 43.5 °F 42.1 °F 90% 29.90 in 10.0 mi SW 3.5 mph - N/A   Overcast
4:23 AM 44.6 °F 43.1 °F 42.8 °F 93% 29.89 in 10.0 mi Variable 3.5 mph - N/A   Overcast
4:52 AM 45.0 °F 43.5 °F 42.1 °F 90% 29.90 in 10.0 mi SSW 3.5 mph - N/A   Overcast
5:14 AM 44.6 °F - 42.8 °F 93% 29.89 in 9.0 mi Calm Calm - N/A   Overcast
5:52 AM 45.0 °F 42.6 °F 42.1 °F 90% 29.91 in 10.0 mi South 4.6 mph - N/A   Overcast
6:52 AM 45.0 °F 41.8 °F 42.1 °F 90% 29.92 in 10.0 mi South 5.8 mph - N/A   Overcast
6:59 AM 44.6 °F 41.4 °F 42.8 °F 93% 29.91 in 10.0 mi South 5.8 mph - N/A   Overcast
7:52 AM 44.1 °F 40.8 °F 41.0 °F 89% 29.92 in 10.0 mi South 5.8 mph - N/A   Overcast
7:59 AM 44.6 °F 42.2 °F 41.0 °F 87% 29.91 in 10.0 mi South 4.6 mph - N/A   Overcast
8:52 AM 43.0 °F 40.3 °F 42.1 °F 97% 29.93 in 8.0 mi SE 4.6 mph - N/A   Overcast
9:37 AM 42.8 °F 39.3 °F 42.8 °F 100% 29.91 in 4.0 mi ESE 5.8 mph - N/A   Overcast
9:52 AM 44.1 °F 40.8 °F 42.1 °F 93% 29.93 in 6.0 mi SE 5.8 mph - N/A   Overcast
10:24 AM 44.6 °F 43.1 °F 42.8 °F 93% 29.92 in 10.0 mi ESE 3.5 mph - N/A   Overcast
10:52 AM 45.0 °F 41.2 °F 42.1 °F 90% 29.93 in 10.0 mi SE 6.9 mph - N/A   Overcast
11:52 AM 45.0 °F 41.8 °F 41.0 °F 86% 29.93 in 10.0 mi ESE 5.8 mph - N/A   Overcast
12:01 PM 44.6 °F 40.2 °F 42.8 °F 93% 29.92 in 10.0 mi SE 8.1 mph - N/A   Overcast
12:52 PM 48.9 °F - 44.1 °F 83% 29.93 in 10.0 mi SSE 4.6 mph - N/A   Overcast
1:31 PM 48.2 °F - 42.8 °F 82% 29.92 in 10.0 mi ESE 4.6 mph - N/A   Overcast
1:52 PM 48.9 °F - 43.0 °F 80% 29.93 in 10.0 mi SE 6.9 mph - N/A   Overcast
2:52 PM 52.0 °F - 43.0 °F 71% 29.91 in 10.0 mi SE 4.6 mph - N/A   Mostly Cloudy
3:52 PM 53.1 °F - 42.1 °F 66% 29.90 in 10.0 mi ESE 4.6 mph - N/A   Mostly Cloudy
4:52 PM 53.1 °F - 42.1 °F 66% 29.88 in 10.0 mi East 4.6 mph - N/A   Overcast
5:52 PM 53.1 °F - 43.0 °F 69% 29.87 in 10.0 mi ESE 3.5 mph - N/A   Overcast
6:52 PM 53.1 °F - 44.1 °F 71% 29.85 in 10.0 mi East 3.5 mph - N/A   Overcast
7:52 PM 51.1 °F - 44.1 °F 77% 29.84 in 10.0 mi Calm Calm - N/A   Overcast
8:52 PM 50.0 °F - 46.0 °F 86% 29.83 in 10.0 mi Calm Calm - N/A   Overcast
9:52 PM 48.9 °F - 44.1 °F 83% 29.83 in 10.0 mi Calm Calm - N/A   Overcast
10:52 PM 46.9 °F - 45.0 °F 93% 29.84 in 10.0 mi Calm Calm - N/A   Overcast
11:52 PM 46.9 °F - 44.1 °F 90% 29.85 in 10.0 mi Calm Calm - 0.00 in   Overcast